リニア彗星

P/1998 VS24 ( LINEAR ) 2008

English version
Home page
Updated on April 4, 2020

---------------------------------------------------------------------

・ プロフィール

・ 軌道要素

The following orbital elements are taken from MPC 54169:

Epoch 2008 May 14.0 TT = JDT 2454600.5
T 2008 May 24.6726 TT                                   MPC
q   3.422563             (2000.0)            P               Q
n   0.1026959      Peri.  244.3746      +0.7234277      -0.6896978
a   4.516139       Node   159.1849      +0.6606924      +0.6785085
e   0.242148       Incl.    5.0263      +0.2003445      +0.2528699
P   9.60
From 37 observations 1998 Oct. 24-1999 Jan. 13, mean residual 0".7.

・ 星図

・ 光度変化

        m1 = 11.0 + 5 logΔ + 10.0 log r

---------------------------------------------------------------------

軌道要素はMPCのEphemerides and Orbital Elementsに掲載されたものです。
星図は StellaNavigator Ver.2.0 for Windows (アストロアーツ 編著 / アスキー出版局刊) で作成したものです。
光度グラフはComet for Windowsで作成したものです。

---------------------------------------------------------------------

Copyright(C) Seiichi Yoshida (comet@aerith.net). All rights reserved.